Location: Banska Bystrica
(48.7333°N, 19.1500°E)
Time: 11:01:27
(UTC+01:00)

ISS - Pass Details

Date: 27 January 2021
Orbit: 417 x 422 km, 51.6° (Epoch: 07 March)

Event Time Altitude Azimuth Distance (km) Brightness Sun altitude
Rises 19:36:49 0° 288° (WNW) 2,377 1.2 -30.1°
Reaches altitude 10° 19:38:56 10° 291° (WNW) 1,511 -0.1 -30.4°
Enters shadow 19:39:27 14° 292° (WNW) 1,307 -0.5 -30.5°
